Weather History for KAXA - January, 2014

Change the Weather History Date:

Thursday, January 2, 2014

  Actual Average Record
Temperature  
Mean Temperature -6 °F -  
Max Temperature 1 °F 25 °F 48 °F (1998)
Min Temperature -14 °F 11 °F -14 °F (2014)
Degree Days  
Heating Degree Days 72    
Moisture  
Dew Point -14 °F    
Average Humidity 70    
Maximum Humidity 78    
Minimum Humidity 60    
Precipitation  
Precipitation 0.00 in - - ()
Sea Level Pressure  
Sea Level Pressure 30.38 in    
Wind  
Wind Speed 8 mph (North)    
Max Wind Speed 12 mph    
Max Gust Speed 15 mph    
Visibility 10 miles    
Events Rain    
Averages and records for this station are not official NWS values.
T = Trace of Precipitation, MM = Missing Value Source: NWS Daily Summary

Daily Weather History Graph

Daily Weather History Graph

Search for Another Location

Airport or City:

Trip Planner

Search our weather history database for the weather conditions in past years. The results will help you decide how hot, cold, wet, or windy it might be!

Date:

Astronomy

Jan. 02, 2014 Rise Set
Actual Time 7:48 AM CST 4:53 PM CST
Civil Twilight 7:16 AM CST 5:26 PM CST
Nautical Twilight 6:40 AM CST 6:01 PM CST
Astronomical Twilight 6:06 AM CST 6:36 PM CST
Moon 8:27 AM CST (1/2) 6:55 PM CST (1/2)
Length of Visible Light 10h 09m
Length of Day
9h 05m
Waxing Crescent, 3% of the Moon is Illuminated
Jan 2
Waxing Crescent
Jan 7
First Quarter
Jan 15
Full
Jan 23
Last Quarter
Jan 30
New

Hourly Weather History & Observations

Time (CST) Temp. Windchill Dew Point Humidity Pressure Visibility Wind Dir Wind Speed Gust Speed Precip Events Conditions
12:15 AM -0.4 °F -16.7 °F -5.8 °F 78% 30.33 in 10.0 mi North 10.4 mph - N/A   Overcast
12:35 AM 1.4 °F -14.5 °F -5.8 °F 72% 30.33 in 10.0 mi North 10.4 mph - N/A   Overcast
12:55 AM 1.4 °F -13.5 °F -5.8 °F 72% 30.32 in 10.0 mi North 9.2 mph - N/A   Overcast
1:15 AM 1.4 °F -13.5 °F -5.8 °F 72% 30.32 in 10.0 mi North 9.2 mph - N/A   Overcast
1:35 AM 1.4 °F -12.5 °F -5.8 °F 72% 30.32 in 10.0 mi North 8.1 mph 15.0 mph N/A Rain Light Freezing Rain
1:55 AM 1.4 °F -14.5 °F -5.8 °F 72% 30.32 in 10.0 mi North 10.4 mph - N/A   Overcast
2:15 AM 1.4 °F -13.5 °F -5.8 °F 72% 30.32 in 9.0 mi North 9.2 mph - N/A Rain Light Freezing Rain
2:35 AM 1.4 °F -14.5 °F -5.8 °F 72% 30.32 in 8.0 mi North 10.4 mph - N/A Rain Light Freezing Rain
2:55 AM 1.4 °F -13.5 °F -5.8 °F 72% 30.33 in 9.0 mi North 9.2 mph - N/A Rain Light Freezing Rain
3:15 AM -0.4 °F -14.7 °F -5.8 °F 78% 30.33 in 10.0 mi North 8.1 mph - N/A   Overcast
3:35 AM -0.4 °F -15.7 °F -5.8 °F 78% 30.32 in 10.0 mi North 9.2 mph 15.0 mph N/A   Overcast
3:55 AM -0.4 °F -13.4 °F -7.6 °F 72% 30.32 in 10.0 mi North 6.9 mph - N/A   Overcast
4:15 AM -2.2 °F -15.6 °F -7.6 °F 78% 30.32 in 10.0 mi North 6.9 mph - N/A   Overcast
4:35 AM -4.0 °F -17.8 °F -9.4 °F 78% 30.32 in 10.0 mi North 6.9 mph - N/A   Mostly Cloudy
4:55 AM -5.8 °F -18.4 °F -11.2 °F 77% 30.32 in 10.0 mi North 5.8 mph - N/A   Partly Cloudy
5:15 AM -7.6 °F -23.4 °F -13.0 °F 77% 30.33 in 10.0 mi North 8.1 mph - N/A   Scattered Clouds
5:35 AM -7.6 °F -24.6 °F -13.0 °F 77% 30.34 in 10.0 mi NNW 9.2 mph - N/A   Partly Cloudy
5:55 AM -7.6 °F -23.4 °F -14.8 °F 71% 30.34 in 10.0 mi North 8.1 mph - N/A   Partly Cloudy
6:15 AM -9.4 °F -25.6 °F -14.8 °F 77% 30.35 in 10.0 mi North 8.1 mph - N/A   Partly Cloudy
6:35 AM -7.6 °F -24.6 °F -14.8 °F 71% 30.36 in 10.0 mi NNW 9.2 mph - N/A   Clear
6:55 AM -9.4 °F -27.9 °F -14.8 °F 77% 30.36 in 10.0 mi North 10.4 mph - N/A   Clear
7:15 AM -9.4 °F -27.9 °F -14.8 °F 77% 30.35 in 10.0 mi North 10.4 mph - N/A   Clear
7:35 AM -9.4 °F -26.8 °F -16.6 °F 71% 30.36 in 10.0 mi North 9.2 mph - N/A   Clear
7:55 AM -11.2 °F -27.8 °F -16.6 °F 77% 30.36 in 10.0 mi North 8.1 mph - N/A   Clear
8:15 AM -11.2 °F -29.0 °F -18.4 °F 70% 30.36 in 10.0 mi North 9.2 mph - N/A   Clear
8:35 AM -9.4 °F -25.6 °F -16.6 °F 71% 30.38 in 10.0 mi North 8.1 mph - N/A   Clear
8:55 AM -9.4 °F -26.8 °F -16.6 °F 71% 30.38 in 10.0 mi North 9.2 mph - N/A   Clear
9:15 AM -9.4 °F -24.3 °F -16.6 °F 71% 30.39 in 10.0 mi North 6.9 mph - N/A   Clear
9:35 AM -7.6 °F -24.6 °F -14.8 °F 71% 30.41 in 10.0 mi North 9.2 mph - N/A   Clear
9:55 AM -7.6 °F -24.6 °F -14.8 °F 71% 30.41 in 10.0 mi North 9.2 mph - N/A   Clear
10:15 AM -5.8 °F -22.4 °F -13.0 °F 71% 30.42 in 10.0 mi North 9.2 mph - N/A   Clear
10:35 AM -5.8 °F -23.4 °F -13.0 °F 71% 30.42 in 9.0 mi North 10.4 mph - N/A   Clear
10:55 AM -4.0 °F -20.2 °F -13.0 °F 65% 30.42 in 10.0 mi North 9.2 mph - N/A   Clear
11:15 AM -4.0 °F -22.1 °F -13.0 °F 65% 30.42 in 10.0 mi North 11.5 mph - N/A   Clear
11:35 AM -4.0 °F -21.2 °F -13.0 °F 65% 30.42 in 10.0 mi North 10.4 mph - N/A   Clear
11:55 AM -4.0 °F -20.2 °F -11.2 °F 71% 30.41 in 10.0 mi North 9.2 mph - N/A   Clear
12:15 PM -2.2 °F -16.8 °F -11.2 °F 66% 30.42 in 10.0 mi North 8.1 mph - N/A   Clear
12:35 PM -2.2 °F -16.8 °F -11.2 °F 66% 30.40 in 10.0 mi North 8.1 mph 13.8 mph N/A   Clear
12:55 PM -2.2 °F -18.0 °F -11.2 °F 66% 30.40 in 10.0 mi North 9.2 mph - N/A   Clear
1:15 PM -2.2 °F -15.6 °F -11.2 °F 66% 30.40 in 10.0 mi North 6.9 mph - N/A   Clear
1:35 PM -2.2 °F -16.8 °F -11.2 °F 66% 30.40 in 10.0 mi North 8.1 mph - N/A   Clear
1:55 PM -0.4 °F -14.7 °F -11.2 °F 60% 30.40 in 10.0 mi NNW 8.1 mph - N/A   Clear
2:15 PM -0.4 °F -14.7 °F -11.2 °F 60% 30.41 in 10.0 mi North 8.1 mph - N/A   Clear
2:35 PM -2.2 °F -16.8 °F -11.2 °F 66% 30.41 in 10.0 mi North 8.1 mph - N/A   Clear
2:55 PM -2.2 °F -15.6 °F -13.0 °F 60% 30.41 in 10.0 mi North 6.9 mph - N/A   Clear
3:15 PM -2.2 °F -16.8 °F -13.0 °F 60% 30.41 in 10.0 mi North 8.1 mph - N/A   Clear
3:35 PM -2.2 °F -15.6 °F -13.0 °F 60% 30.42 in 10.0 mi North 6.9 mph - N/A   Clear
3:55 PM -4.0 °F -16.3 °F -13.0 °F 65% 30.42 in 10.0 mi North 5.8 mph - N/A   Clear
4:15 PM -4.0 °F -12.4 °F -13.0 °F 65% 30.43 in 10.0 mi North 3.5 mph - N/A   Clear
4:35 PM -5.8 °F -18.4 °F -14.8 °F 65% 30.42 in 10.0 mi North 5.8 mph - N/A   Clear
4:55 PM -5.8 °F -14.5 °F -14.8 °F 65% 30.42 in 10.0 mi NNW 3.5 mph - N/A   Clear
5:15 PM -5.8 °F -18.4 °F -14.8 °F 65% 30.43 in 10.0 mi NW 5.8 mph - N/A   Clear
5:35 PM -7.6 °F -22.1 °F -14.8 °F 71% 30.43 in 10.0 mi NW 6.9 mph - N/A   Clear
5:55 PM -7.6 °F -22.1 °F -16.6 °F 65% 30.42 in 10.0 mi North 6.9 mph - N/A   Clear
6:15 PM -7.6 °F -22.1 °F -16.6 °F 65% 30.43 in 10.0 mi NNW 6.9 mph - N/A   Clear
6:35 PM -9.4 °F -20.9 °F -18.4 °F 65% 30.42 in 10.0 mi North 4.6 mph - N/A   Clear
6:55 PM -9.4 °F - -16.6 °F 71% 30.42 in 10.0 mi Calm Calm - N/A   Clear
7:15 PM -9.4 °F - -16.6 °F 71% 30.41 in 10.0 mi Calm Calm - N/A   Clear
7:35 PM -11.2 °F -23.0 °F -18.4 °F 70% 30.40 in 10.0 mi NE 4.6 mph - N/A   Clear
7:55 PM -11.2 °F -24.8 °F -18.4 °F 70% 30.39 in 10.0 mi NE 5.8 mph - N/A   Clear
8:15 PM -11.2 °F - -18.4 °F 70% 30.39 in 10.0 mi Calm Calm - N/A   Clear
8:35 PM -11.2 °F - -18.4 °F 70% 30.39 in 10.0 mi Calm Calm - N/A   Clear
8:55 PM -14.8 °F - -22.0 °F 70% 30.39 in 10.0 mi Calm Calm - N/A   Clear
9:15 PM -14.8 °F - -22.0 °F 70% 30.38 in 10.0 mi Calm Calm - N/A   Clear
9:35 PM -13.0 °F - -20.2 °F 70% 30.37 in 10.0 mi Calm Calm - N/A   Clear
9:55 PM -14.8 °F -27.2 °F -22.0 °F 70% 30.38 in 10.0 mi SSW 4.6 mph - N/A   Clear
10:15 PM -14.8 °F -29.1 °F -22.0 °F 70% 30.37 in 10.0 mi South 5.8 mph - N/A   Clear
10:35 PM -14.8 °F -29.1 °F -22.0 °F 70% 30.36 in 10.0 mi South 5.8 mph - N/A   Clear
10:55 PM -13.0 °F -27.0 °F -20.2 °F 70% 30.36 in 10.0 mi SSW 5.8 mph - N/A   Clear
11:15 PM -13.0 °F -30.0 °F -20.2 °F 70% 30.36 in 10.0 mi SSW 8.1 mph - N/A   Clear
11:35 PM -14.8 °F -32.2 °F -22.0 °F 70% 30.35 in 10.0 mi SSW 8.1 mph - N/A   Clear
11:55 PM -13.0 °F -30.0 °F -20.2 °F 70% 30.34 in 10.0 mi South 8.1 mph - N/A   Clear